GFSSE_850_thetae_159.txt.gz
Theta_e
348 346 345 343 339 333 324 324 324 324 323 324 325 326 329 322 325 324 323 323 323 322 323 323 323 322 322 322 322 323 323 324 325 328 332 330 329 328 326 324 323 323 323
347 346 345 344 340 335 327 321 323 322 320 320 320 321 320 324 324 324 323 324 323 323 323 323 323 323 323 323 323 325 325 331 335 335 337 338 337 328 328 329 328 326 324
345 345 346 344 341 336 330 320 320 319 320 320 320 320 322 323 324 324 325 325 324 324 324 324 324 325 324 324 326 332 336 338 340 340 339 338 338 335 329 327 327 328 329
344 345 346 345 342 337 333 321 320 321 321 321 321 321 322 324 324 324 325 327 326 326 326 327 327 327 328 330 335 339 340 341 342 341 339 341 341 339 336 341 331 327 326
344 344 345 345 342 337 335 325 320 321 322 323 322 322 323 324 323 324 325 326 328 329 329 330 329 329 329 330 333 339 342 343 344 343 342 342 343 341 340 340 335 329 328
344 344 344 345 343 338 337 330 321 321 322 323 323 323 323 323 323 323 324 325 326 327 329 330 331 330 330 330 330 334 340 342 342 342 342 342 342 341 340 341 337 332 328
344 343 343 344 343 338 338 334 327 321 322 323 323 323 323 322 322 322 322 323 324 325 326 328 329 332 332 331 332 331 339 341 339 341 341 339 339 339 340 342 342 334 330
342 343 342 344 343 339 338 336 332 325 321 322 323 322 322 322 322 322 322 322 322 323 324 324 325 327 330 331 332 333 333 332 331 339 335 336 338 338 338 337 340 335 331
341 342 340 341 343 340 339 338 335 331 325 321 322 323 323 323 322 322 322 321 321 321 322 322 322 323 323 323 323 324 324 325 327 328 328 329 338 338 335 335 338 335 332
340 337 335 340 343 341 340 339 337 333 330 323 322 323 323 323 323 323 323 322 322 322 322 322 322 321 322 322 322 324 324 324 329 324 324 330 333 333 332 333 334 336 332
335 334 333 338 342 342 341 340 339 336 333 326 322 323 324 324 324 324 324 323 322 321 322 322 323 323 323 323 323 322 323 331 331 328 328 330 331 332 335 334 332 334 333
332 332 333 338 341 341 341 340 339 338 336 329 323 322 323 324 325 324 324 325 323 323 323 322 321 321 321 321 321 321 326 329 333 332 331 332 333 334 335 338 333 333 334
330 327 331 336 339 340 340 340 338 338 334 329 323 322 323 323 325 324 323 325 327 335 336 335 335 324 326 325 327 326 327 332 335 334 332 331 332 332 334 336 338 339 337
329 326 327 331 335 338 338 337 334 331 328 324 322 323 323 322 322 323 325 330 337 337 337 338 339 337 335 334 335 333 335 336 337 339 341 341 342 343 342 343 344 345 345
330 327 325 328 333 333 333 330 326 323 322 321 322 322 321 320 320 321 326 337 339 338 338 338 339 339 338 337 337 337 337 336 336 337 338 340 344 344 345 345 346 345 346
332 329 326 324 324 325 325 323 321 321 321 322 322 321 323 323 323 322 331 336 336 338 340 339 338 338 338 338 336 337 337 336 337 336 337 338 339 342 344 345 348 346 345
335 331 328 327 326 327 327 327 326 328 331 337 343 345 346 346 345 334 336 342 341 342 343 342 342 337 336 336 337 337 337 336 335 335 335 341 343 342 341 343 342 341 342
337 332 331 330 330 333 334 343 343 341 345 346 346 346 347 347 347 347 347 347 346 345 345 344 344 339 339 339 338 338 337 336 334 335 338 340 340 341 334 333 335 331 339
341 335 334 335 335 338 342 344 346 344 347 348 348 347 347 348 348 348 348 347 348 348 348 341 341 335 336 340 339 338 336 333 333 332 333 335 336 334 334 331 331 333 334
346 346 342 341 342 342 343 344 346 345 348 351 350 350 348 348 347 347 348 349 350 350 340 337 337 338 340 340 339 336 334 337 336 335 336 335 334 333 332 332 334 335 335
346 347 346 345 345 344 346 347 348 348 349 352 351 350 349 348 348 348 350 350 345 340 339 337 338 337 336 337 337 338 337 337 336 336 334 330 333 335 334 336 338 337 335
346 346 345 344 345 343 345 340 346 347 346 348 349 350 348 348 347 346 346 344 344 345 342 339 336 336 341 341 342 340 339 338 337 337 336 336 334 335 336 337 337 336 335
344 343 342 336 335 345 336 333 344 347 346 346 345 346 349 349 347 345 345 345 342 342 342 341 341 341 340 341 340 339 338 337 337 334 333 332 334 334 335 335 335 334 334
335 336 336 333 332 337 335 334 344 346 346 346 346 346 347 346 344 343 341 341 343 343 342 342 339 338 335 336 335 334 334 332 332 332 331 329 330 330 329 328 326 326 327
333 336 331 338 333 337 342 346 347 347 346 344 343 344 342 342 343 342 343 342 340 339 337 337 334 333 331 330 330 329 328 327 328 321 321 320 316 314 311 309 309 313 318
335 339 336 332 337 345 345 346 346 346 345 342 341 343 344 343 341 339 337 335 333 331 330 328 324 322 320 318 317 317 316 315 315 314 313 311 309 308 308 310 315 312 309

GFSSE_850_thetae_162.txt.gz
Theta_e
348 344 341 337 331 328 326 329 330 335 337 338 338 338 334 324 323 323 323 324 333 331 330 328 324 322 322 322 322 323 324 324 328 331 331 330 328 328 328 327 325 324 324
346 344 342 338 333 327 324 327 327 327 331 333 333 331 326 323 323 322 322 322 322 322 323 323 322 322 322 322 323 324 329 331 332 336 336 335 333 327 327 327 328 329 328
346 344 342 339 335 329 323 324 324 323 323 323 324 323 322 323 323 323 323 323 323 323 323 323 323 323 323 324 329 330 333 338 339 339 337 339 336 333 339 335 329 327 327
347 344 343 340 336 332 322 321 322 320 320 320 320 320 323 324 324 324 325 324 324 324 324 325 325 326 325 327 336 339 341 342 342 341 341 341 341 339 339 339 333 329 328
346 343 344 341 338 334 323 320 319 320 320 320 320 321 323 324 324 324 326 326 326 326 327 328 329 329 330 335 338 341 342 342 343 342 342 342 342 341 339 339 337 333 330
344 343 344 343 339 335 327 319 320 321 321 321 321 322 324 324 324 324 326 328 329 329 330 330 330 330 330 330 330 336 339 341 341 341 341 341 341 340 338 339 339 338 332
341 343 344 344 339 336 331 320 320 321 322 322 322 323 324 323 323 323 324 325 327 327 329 331 332 333 332 331 331 331 336 339 340 338 340 337 337 337 338 338 338 340 336
336 343 345 344 340 337 335 327 320 321 323 323 323 324 324 323 323 322 322 323 324 325 325 326 326 328 332 333 333 333 333 333 332 332 333 334 330 336 337 335 335 338 340
341 343 344 344 341 337 337 332 325 320 322 324 324 324 323 322 322 322 322 322 322 322 323 323 323 323 323 324 324 323 323 324 325 325 325 325 325 329 333 332 332 333 337
343 343 343 344 342 339 337 336 332 326 321 322 324 324 323 323 322 322 322 322 322 321 321 321 321 321 321 322 322 322 323 324 327 330 330 328 328 331 331 337 337 335 332
344 343 343 344 342 340 338 338 335 332 327 322 322 324 323 324 324 324 323 323 322 322 321 322 322 322 322 322 322 322 322 323 328 331 331 331 332 333 333 334 335 335 332
342 342 343 344 342 341 339 338 338 335 332 327 322 322 324 323 324 324 324 324 322 322 325 325 324 323 322 321 322 324 322 323 330 332 332 332 332 332 334 336 339 339 337
337 341 341 344 342 341 341 339 338 337 334 331 325 322 322 323 324 324 323 324 325 329 332 333 335 335 329 330 328 331 331 332 334 335 336 340 340 341 342 342 342 343 343
339 336 336 340 342 342 341 341 339 338 336 333 328 322 322 322 323 324 324 325 328 332 333 335 336 337 336 335 335 336 336 335 335 335 335 337 337 340 342 343 344 344 344
334 332 331 331 336 340 341 341 340 339 336 332 327 323 323 323 322 322 322 328 336 337 336 336 337 336 336 336 337 337 336 336 335 334 333 333 333 333 334 340 342 343 342
332 330 327 325 328 332 335 337 339 336 331 327 324 323 322 321 321 320 322 331 336 339 340 340 340 339 336 335 333 334 334 335 336 335 334 332 334 337 341 341 339 336 338
332 329 326 325 328 329 332 329 326 324 323 322 323 324 332 340 342 333 329 342 343 343 344 343 341 342 341 338 337 337 337 337 336 336 335 334 333 333 336 338 337 335 333
332 330 327 325 325 325 326 326 327 328 332 337 342 344 346 346 347 347 346 346 346 347 348 348 347 340 343 338 338 338 338 338 337 335 334 335 335 335 335 334 333 332 332
333 332 329 327 327 327 330 338 343 338 341 345 346 346 346 347 347 347 347 347 346 347 349 349 342 337 337 336 335 334 335 335 333 336 337 336 333 334 335 335 333 334 335
342 338 331 330 330 330 335 342 344 345 344 347 349 347 348 348 349 347 346 347 347 348 348 342 338 336 336 337 336 336 338 337 338 338 337 337 337 335 336 336 336 337 337
345 337 334 336 333 334 337 341 344 346 345 345 346 346 347 346 345 345 348 348 349 345 342 344 341 339 339 338 340 338 337 336 335 337 336 334 333 332 333 333 334 335 335
345 343 343 339 340 341 341 343 345 347 346 345 346 346 345 344 344 343 343 344 343 341 339 341 341 340 340 340 337 336 336 333 335 333 332 330 330 328 330 331 329 328 327
346 345 345 345 344 344 344 345 341 335 333 337 336 344 345 343 344 342 343 343 342 341 340 341 339 337 335 335 334 333 335 335 331 330 325 326 318 318 312 309 308 308 309
346 346 346 345 344 344 343 340 340 335 340 337 339 330 335 338 343 343 342 342 342 341 338 336 334 332 331 329 328 328 328 329 324 323 320 311 308 307 308 308 309 312 314
345 345 344 344 340 334 336 335 334 334 336 334 336 337 342 341 342 342 339 337 336 334 332 330 328 325 321 318 315 313 311 310 312 310 311 309 308 308 308 308 307 307 308
345 343 339 333 332 334 336 342 342 337 332 333 339 339 338 339 338 336 333 332 331 329 325 320 316 313 311 310 309 308 307 307 308 309 308 306 306 307 308 310 308 312 311

GFSSE_850_thetae_165.txt.gz
Theta_e
351 350 343 337 334 333 334 337 339 339 339 338 338 336 330 323 324 323 324 327 331 330 332 329 324 322 322 322 323 323 324 329 333 333 332 329 327 327 327 327 327 327 325
348 346 340 337 332 331 332 334 337 338 338 338 338 337 327 323 323 323 324 331 332 330 328 324 322 322 322 323 323 328 330 332 335 337 337 336 333 333 333 329 328 327 327
347 342 340 335 329 327 328 329 332 336 337 337 336 331 322 323 323 322 322 322 322 322 323 323 323 323 323 326 327 329 336 339 340 339 339 341 340 337 338 336 330 328 327
345 342 340 336 329 325 326 327 326 327 330 331 327 323 323 323 323 323 323 323 323 323 324 324 324 324 325 329 335 337 339 341 341 341 341 342 342 339 338 338 337 333 330
344 343 341 337 331 326 322 324 324 324 324 323 322 322 324 324 323 325 324 324 324 325 326 327 328 328 331 335 337 339 340 341 341 341 341 341 340 340 338 338 339 340 336
345 343 341 338 334 330 321 322 321 320 320 320 321 323 324 324 324 326 326 326 327 328 329 330 329 329 329 330 330 334 337 339 341 339 340 340 337 336 337 338 338 338 340
345 343 341 339 336 332 321 320 319 320 320 320 321 323 324 324 324 324 327 329 329 330 331 331 332 332 331 331 331 331 332 334 336 337 333 336 336 332 335 337 335 336 337
345 344 342 340 337 334 325 319 320 321 321 321 322 324 324 323 323 323 324 325 326 327 327 328 329 331 333 333 333 333 333 331 329 328 328 327 326 325 329 334 332 332 333
344 344 343 342 337 335 330 321 320 322 323 323 323 324 324 323 323 322 322 322 323 323 323 323 323 324 324 324 324 324 323 323 324 325 329 331 330 329 331 332 337 337 336
343 344 344 342 338 336 334 328 320 321 323 324 324 324 323 322 322 322 322 321 321 321 321 321 321 322 322 322 322 322 322 322 322 327 330 333 334 334 333 333 334 335 336
344 343 344 343 339 336 336 333 328 322 321 323 324 324 323 323 322 322 322 322 322 322 322 322 322 322 321 321 321 321 322 321 322 325 332 334 335 333 333 333 333 333 336
346 343 342 344 340 337 336 336 333 329 325 322 322 323 324 323 324 324 324 324 323 322 323 325 325 329 328 325 326 324 328 328 330 331 333 335 336 335 333 338 339 341 340
347 342 342 344 341 339 336 337 336 335 332 328 324 322 323 324 324 324 324 323 325 326 332 334 336 336 336 333 333 333 334 335 333 333 333 334 336 339 336 335 337 341 343
344 342 342 342 343 341 339 338 338 338 337 334 331 326 322 322 323 324 324 323 326 331 334 335 335 336 336 337 337 336 335 336 336 336 335 334 334 333 333 335 340 341 340
343 341 339 341 340 339 340 340 339 338 339 337 335 331 324 323 323 323 322 322 331 338 339 338 338 337 336 335 334 334 333 334 335 336 336 335 336 335 334 334 337 339 337
342 336 338 337 335 337 339 339 339 339 339 337 333 327 324 323 323 322 321 322 336 339 341 341 340 340 340 340 339 337 338 338 337 337 338 337 335 335 335 335 336 335 334
338 337 334 331 331 335 338 339 339 339 338 331 325 323 322 324 329 336 328 327 339 343 345 346 347 347 342 334 333 332 333 336 338 338 338 338 337 336 333 333 333 332 332
337 333 331 328 327 333 338 337 336 330 324 323 324 334 334 343 345 346 346 345 343 345 347 348 347 342 334 334 334 332 331 333 336 337 337 337 336 336 336 336 336 335 334
335 332 330 326 326 329 332 331 327 325 327 334 340 344 345 346 346 346 345 346 346 345 345 346 339 340 339 338 338 337 338 338 339 340 338 337 335 334 333 333 333 334 335
334 332 330 327 325 325 326 328 332 334 333 336 343 347 347 346 346 345 345 345 345 346 345 344 343 343 340 339 339 338 336 333 336 337 336 333 332 331 329 327 329 329 330
334 332 332 329 326 326 328 335 341 342 340 341 343 348 347 347 344 342 341 341 337 339 339 342 343 341 341 340 334 332 333 334 333 335 330 328 327 322 315 310 308 308 314
340 336 336 331 329 329 331 339 342 343 345 344 344 345 346 340 338 334 333 331 331 342 340 340 338 340 337 333 333 336 336 336 336 329 332 320 317 309 309 308 308 311 312
343 343 338 333 332 333 334 339 343 345 345 342 340 339 335 333 333 331 331 335 339 339 341 340 337 334 331 329 328 328 332 332 325 327 321 315 308 308 308 308 308 308 309
344 343 336 335 337 339 341 341 343 342 337 337 335 333 333 331 332 334 333 339 338 336 335 333 330 327 324 320 316 314 314 318 317 316 315 315 308 310 311 311 313 312 311
344 342 341 340 342 343 342 343 342 334 334 333 334 334 332 330 338 338 337 331 331 331 328 325 321 317 314 311 309 308 308 312 312 313 313 311 311 312 311 310 310 312 310
344 344 344 343 343 338 335 336 338 336 334 329 328 326 330 337 336 332 328 328 328 327 322 316 312 309 308 308 308 308 307 308 310 310 310 312 312 312 311 311 311 311 310

GFSSE_850_thetae_168.txt.gz
Theta_e
357 353 352 344 337 335 338 341 343 342 336 337 336 330 323 324 322 324 323 325 329 330 331 327 322 322 322 323 323 324 327 331 333 333 333 329 329 331 329 327 327 338 327
357 352 348 340 335 334 337 339 342 339 337 337 336 331 325 325 324 324 327 331 330 331 329 324 322 322 322 323 325 328 331 333 336 336 338 338 337 335 336 332 329 334 327
356 349 342 337 334 332 336 341 340 338 338 337 336 331 325 324 325 325 329 333 331 327 325 322 322 322 323 325 327 331 337 340 340 339 340 348 346 340 338 337 335 332 330
355 345 338 336 332 329 333 338 338 338 338 337 336 328 324 323 323 323 323 323 322 323 323 323 324 324 327 332 336 338 341 342 342 341 347 345 344 342 339 338 338 339 337
353 343 338 334 329 326 330 335 335 336 336 335 330 324 324 323 323 323 323 323 323 324 325 326 327 328 330 336 337 339 341 341 341 342 344 344 341 341 338 338 338 338 339
351 346 337 332 328 325 327 328 327 327 329 328 325 324 324 324 324 325 324 324 325 327 329 330 330 330 331 332 331 331 335 336 339 343 343 342 339 339 333 336 336 336 337
350 347 337 331 330 325 323 324 324 324 324 323 322 324 324 324 324 327 327 328 329 330 331 331 331 331 331 331 331 332 332 333 333 337 338 338 337 331 326 329 334 334 332
350 348 338 331 331 326 321 322 320 320 321 321 322 323 325 325 324 324 327 329 330 330 329 329 330 330 331 332 333 332 331 328 326 333 335 334 334 330 327 328 332 334 337
350 347 338 333 332 328 320 320 320 320 321 321 322 324 325 323 322 323 323 323 324 324 324 324 324 324 323 323 323 322 322 322 322 332 333 334 336 334 332 333 332 333 334
352 348 342 337 333 329 321 320 321 322 322 322 324 325 325 324 323 323 322 322 322 322 321 321 322 322 322 322 322 322 322 322 329 331 330 335 336 334 334 333 333 333 333
352 349 345 342 341 339 334 320 322 324 325 325 326 326 324 335 324 322 326 322 322 322 322 322 322 322 322 322 322 322 321 331 334 334 334 336 335 335 338 338 338 340 341
351 350 347 345 344 342 340 326 327 324 331 335 337 325 337 332 335 335 327 324 324 323 323 327 329 331 334 340 338 336 336 337 337 337 336 337 335 335 336 336 335 335 339
350 350 348 348 344 344 343 340 340 338 339 335 323 325 333 335 331 335 337 335 335 333 339 342 343 343 343 343 342 341 341 340 338 338 339 339 336 335 335 334 335 335 338
351 351 350 349 342 344 345 344 343 342 341 339 334 325 324 327 329 328 336 336 338 342 341 345 343 344 344 344 343 342 341 340 339 339 339 340 338 337 336 335 335 335 336
352 351 351 350 344 342 343 345 345 345 341 342 337 333 337 335 331 331 333 331 330 343 345 344 346 346 346 345 344 345 344 343 343 342 341 341 342 340 337 336 335 334 336
352 352 351 351 344 342 340 343 344 345 345 344 345 341 327 324 323 330 330 333 330 338 343 346 349 348 348 348 346 345 345 343 342 343 343 343 343 341 338 335 334 334 334
351 348 348 351 344 344 345 341 342 344 346 347 345 327 324 322 327 337 337 335 337 341 345 351 349 349 347 347 347 345 343 343 343 343 344 344 343 342 340 338 336 336 336
351 349 349 349 346 343 348 346 347 348 347 345 341 340 327 337 343 344 346 346 346 346 345 344 344 345 343 343 345 345 344 344 345 345 345 343 343 341 340 339 331 330 331
351 348 341 336 336 337 343 345 347 341 341 341 340 343 342 344 344 345 344 343 343 344 343 339 337 340 342 342 342 342 343 342 342 342 342 342 340 336 332 326 320 317 318
347 340 335 335 333 341 344 345 343 339 339 344 347 346 345 345 345 346 345 344 345 335 332 332 333 333 340 341 340 340 340 342 341 341 338 338 331 324 317 318 314 319 322
347 337 334 329 330 338 343 338 339 340 346 343 345 347 347 347 346 345 343 341 335 333 333 332 332 338 340 340 338 338 338 340 342 331 334 331 325 316 316 318 319 319 319
344 336 333 330 328 336 342 345 348 349 347 342 344 345 345 342 342 340 333 332 332 335 333 335 339 340 338 339 337 332 332 331 338 325 326 324 320 315 316 318 318 318 317
346 342 334 331 328 334 343 344 344 343 344 344 344 340 340 340 334 332 332 333 333 336 335 337 337 332 333 330 328 324 327 326 321 323 319 318 317 317 317 317 317 317 316
345 344 336 333 330 330 332 345 345 347 347 342 342 337 333 333 334 337 337 337 337 337 337 333 329 324 318 320 317 318 318 319 320 316 317 317 317 317 317 317 316 316 315
346 345 342 335 335 336 338 345 344 345 344 339 338 334 333 333 337 336 333 333 332 331 330 327 320 314 311 309 312 316 317 317 317 316 317 317 317 317 317 317 316 315 314
344 343 340 336 339 343 345 345 344 341 340 335 333 333 333 337 337 332 332 329 328 327 320 313 310 308 307 308 314 313 314 315 316 316 317 316 316 316 317 316 315 314 312

GFSSE_850_thetae_171.txt.gz
Theta_e
357 352 352 345 347 346 344 342 344 342 332 330 325 322 322 322 322 325 331 332 334 332 331 324 323 323 322 323 323 325 330 333 334 334 334 333 333 336 332 329 329 344 336
358 352 351 343 339 339 339 342 344 340 332 332 328 324 324 323 324 324 325 328 329 332 329 324 322 322 323 323 326 329 332 335 337 335 338 343 346 341 337 335 333 334 329
359 352 349 340 336 335 336 341 344 337 334 334 330 326 325 325 325 326 329 333 333 331 326 322 322 322 323 325 329 333 338 339 339 339 343 346 350 344 340 338 337 337 336
358 352 344 337 334 333 335 341 343 336 336 336 332 326 326 326 326 326 331 334 327 324 323 323 323 323 328 332 335 337 338 339 340 340 344 348 343 343 342 338 338 338 338
355 350 341 336 333 331 336 342 340 336 337 336 332 325 324 324 324 324 324 323 323 324 324 325 326 326 329 333 335 335 335 337 336 338 347 344 345 342 341 334 335 336 336
352 349 338 335 330 329 335 341 338 337 337 336 329 324 324 323 323 323 323 324 324 325 327 329 329 329 330 330 330 330 330 331 332 337 340 342 341 341 340 330 329 334 334
349 349 337 332 328 327 332 337 337 336 335 331 325 325 325 324 325 325 325 325 327 329 330 331 332 331 332 332 332 332 332 332 331 332 335 337 337 337 331 325 325 330 333
349 350 337 330 327 326 328 331 333 331 329 326 324 325 325 324 324 327 328 329 330 330 329 329 328 327 327 326 326 326 325 324 322 330 333 335 335 335 334 331 330 332 333
350 346 336 331 326 325 325 327 328 327 325 322 324 324 325 325 323 323 324 325 325 325 324 324 323 323 322 322 322 322 322 322 322 326 334 333 334 336 335 335 335 334 335
351 347 340 332 328 323 323 324 323 322 322 322 323 324 325 323 323 322 322 322 322 322 321 321 322 322 322 322 322 323 323 322 326 335 334 334 334 335 334 336 340 340 340
350 347 343 341 339 337 330 321 322 322 322 322 324 325 325 334 324 324 326 323 322 322 322 322 324 326 327 331 340 339 338 337 338 337 337 337 337 337 336 336 336 335 335
350 347 344 342 341 338 337 321 326 324 325 329 332 325 337 341 340 340 332 324 325 325 324 339 338 337 343 344 341 342 342 340 339 339 339 339 339 339 338 335 335 334 334
351 347 345 344 342 340 340 334 339 339 341 343 345 334 342 339 334 336 340 339 339 336 342 343 344 344 344 344 343 342 341 341 341 341 341 340 340 340 339 337 336 335 334
351 348 346 347 345 343 343 339 340 338 341 342 342 338 340 332 337 337 337 338 338 342 343 344 343 345 346 344 344 343 345 346 345 344 344 343 341 341 343 340 338 336 335
352 350 348 349 348 346 344 343 343 343 342 342 344 341 341 338 339 338 338 335 333 338 343 345 344 345 345 345 345 346 345 346 346 345 344 344 344 344 343 340 338 336 335
354 352 350 350 350 349 348 346 347 346 346 345 345 345 342 337 335 338 336 335 335 339 343 344 349 348 347 348 348 349 347 346 346 345 344 344 345 343 341 340 339 337 335
354 352 352 352 351 352 350 350 349 348 346 346 346 347 342 333 330 336 340 339 342 345 346 350 348 342 347 340 344 347 344 343 343 345 344 344 343 341 340 339 336 335 324
355 354 353 352 351 350 349 349 348 347 346 346 345 344 341 336 344 343 348 349 345 345 345 344 343 345 346 345 333 336 341 344 342 343 344 342 340 337 334 329 326 316 316
353 353 353 352 351 351 351 350 347 346 347 343 341 342 343 345 345 348 349 348 345 345 342 333 333 332 341 335 340 343 342 342 343 342 339 339 335 330 320 319 319 322 322
352 352 353 351 350 350 349 350 348 347 342 341 344 347 347 348 346 346 350 347 345 343 338 333 334 342 342 342 338 337 336 340 343 339 336 335 330 323 318 320 322 321 321
352 352 352 347 345 349 344 347 345 340 340 346 349 350 349 350 349 348 349 343 343 336 334 334 336 334 340 338 339 337 333 340 339 335 334 328 322 319 320 320 320 321 320
351 352 349 347 344 347 347 341 338 339 347 348 350 349 347 346 347 346 343 339 336 332 336 338 338 337 339 336 332 329 328 327 328 322 321 321 320 320 320 320 320 319 319
352 349 348 345 341 346 341 343 346 347 346 350 347 345 345 343 339 335 333 332 335 337 336 337 335 333 328 327 322 322 321 321 320 321 319 320 319 320 320 320 320 319 318
349 349 348 344 345 345 347 349 349 349 349 348 347 343 337 333 333 336 337 337 337 334 333 331 327 321 318 319 319 319 321 322 322 320 320 320 319 320 320 319 319 317 316
348 347 347 339 345 347 348 348 348 348 348 346 343 340 334 333 336 336 334 331 329 327 326 320 314 313 314 316 319 318 318 319 320 320 320 319 317 318 319 319 318 316 316
348 348 348 346 347 347 348 351 347 347 347 344 339 336 333 335 336 332 329 327 324 319 313 311 310 308 308 309 318 318 319 319 319 319 318 317 316 317 318 319 317 317 316

GFSSE_850_thetae_174.txt.gz
Theta_e
353 350 350 348 351 348 344 344 342 332 327 322 321 321 321 323 327 330 332 333 331 331 325 323 324 322 323 323 324 327 331 333 333 333 336 339 345 340 335 334 333 331 329
352 350 346 347 350 348 343 344 342 333 330 326 322 322 322 322 325 329 330 330 330 330 325 322 323 323 323 324 326 329 332 336 336 337 343 346 348 348 343 337 336 336 335
353 350 345 346 345 342 342 343 343 333 332 328 324 324 323 323 324 324 326 328 331 329 323 322 322 322 323 325 329 333 337 338 337 337 342 346 349 350 343 341 336 336 337
351 351 343 339 336 334 339 343 343 334 334 331 326 325 325 324 325 326 330 332 327 324 323 323 323 323 326 330 334 337 337 337 336 335 344 347 348 345 341 340 337 333 336
351 350 341 336 334 333 337 343 342 335 335 334 328 325 325 325 324 326 329 324 322 323 324 325 326 327 329 333 334 332 330 330 330 331 338 339 345 343 340 341 338 327 331
354 348 340 334 332 332 337 343 340 335 336 335 328 325 324 323 323 323 322 323 323 325 327 328 329 329 329 330 331 331 332 332 332 330 328 336 338 339 339 337 330 325 326
352 345 337 333 331 332 338 342 337 336 337 334 326 324 324 323 324 323 323 324 326 328 330 330 330 330 329 329 327 326 324 323 322 322 323 333 334 337 336 335 333 331 332
350 343 336 331 329 333 337 339 337 337 336 330 325 325 324 324 326 326 326 327 329 329 328 327 325 324 323 322 321 322 322 322 322 323 331 333 334 334 335 336 333 334 336
350 341 333 329 328 332 334 335 335 334 332 327 324 324 324 324 324 325 326 326 326 325 324 322 321 321 322 322 323 335 338 336 331 335 336 336 336 333 334 336 335 334 339
350 340 332 328 326 327 330 331 330 330 328 323 323 324 325 323 323 322 322 322 322 321 321 322 322 322 325 333 342 342 341 340 340 339 338 339 337 337 337 337 337 335 335
347 343 336 328 326 323 324 326 326 325 323 323 324 325 324 324 323 324 323 322 322 322 322 330 331 338 344 344 342 342 342 342 342 341 340 340 339 339 340 339 339 336 335
348 344 341 337 327 326 322 321 321 322 322 323 325 327 341 341 339 342 332 327 328 327 331 343 339 342 346 344 342 342 342 341 342 342 343 342 343 342 341 340 342 341 337
349 344 342 340 338 337 330 320 321 322 323 330 326 336 343 342 335 332 339 339 337 338 346 341 344 344 344 345 344 343 344 345 346 345 344 344 344 342 342 342 342 340 336
349 345 343 341 339 338 332 326 326 328 335 341 340 336 344 337 341 341 340 342 336 342 343 344 343 344 347 343 346 345 345 345 346 344 344 346 344 345 343 343 341 340 337
350 345 345 343 341 341 336 340 337 340 341 342 342 327 336 334 339 337 337 336 336 337 342 343 346 348 346 348 348 347 349 345 346 345 347 344 340 334 341 340 339 337 337
350 346 346 344 343 344 340 342 341 342 342 343 342 335 343 339 340 336 337 329 335 336 341 343 351 349 345 346 344 345 340 342 341 344 343 344 342 341 339 335 334 330 327
350 348 348 347 346 347 346 343 344 343 345 344 345 346 341 338 340 336 335 338 337 339 345 350 348 348 342 343 341 338 339 343 346 342 343 341 338 337 335 333 328 319 316
351 350 349 349 348 348 349 346 345 345 346 346 346 347 343 338 340 325 344 346 349 344 347 350 339 333 336 334 336 343 339 343 342 342 338 337 336 336 332 327 315 318 321
353 351 351 351 350 350 350 347 348 345 347 347 346 343 340 337 336 343 350 349 345 347 346 341 337 335 341 343 340 340 335 338 342 340 336 334 333 329 322 316 318 320 321
354 352 352 352 349 348 349 347 348 345 347 345 342 342 344 346 347 347 350 349 347 345 344 339 334 337 338 341 339 336 333 341 343 334 333 328 327 320 320 320 320 319 320
354 353 352 351 348 350 349 349 350 346 343 341 344 350 347 351 349 348 348 347 343 343 340 334 336 340 341 338 332 325 331 338 337 325 322 320 320 320 321 320 320 319 319
353 353 350 351 349 351 348 348 347 340 340 347 345 347 348 349 348 347 347 345 341 338 338 334 336 338 333 329 322 321 317 318 320 319 320 321 319 319 320 319 320 319 317
352 350 352 350 348 349 347 347 339 339 346 345 346 347 348 346 343 341 336 333 334 337 336 334 332 326 324 320 320 315 317 320 320 319 320 320 318 320 319 318 320 318 317
352 350 349 346 348 347 344 341 341 341 345 347 347 345 344 340 334 334 336 337 336 333 329 325 319 317 316 317 317 319 319 322 320 321 319 319 315 318 319 319 319 317 316
351 347 348 346 347 345 345 343 345 347 346 348 347 345 337 334 335 336 334 330 327 325 320 314 312 309 309 317 316 319 320 321 320 320 320 318 316 317 317 319 317 317 316
349 349 347 345 343 342 350 348 349 347 347 347 346 341 334 335 335 333 329 326 323 315 312 309 308 309 309 313 319 320 320 319 319 318 318 319 318 317 317 317 316 317 316